User: anonymous   Login
Location: Unspecified
(0.0000°N, 0.0000°E)
Time: 23:40:07
(UTC+02:00)
Language:

Delta 168 - Orbit

View from above orbital plane
View from above orbital plane
View from above satellite
View from above satellite

Ground track
Ground track

The orbit data is extracted from the following two-line orbital elements,

1 14051U 83041B   16211.25504067  .00000746  00000-0  45745-4 0  9993
2 14051  25.3367 156.4064 1102279 217.6547 134.1547 13.07337918536123
Epoch (UTC): 29 July 2016 06:07:15
Eccentricity: 0.1102279
inclination: 25.3367°
perigee height: 394 km
apogee height: 2072 km
right ascension of ascending node: 156.4064°
argument of perigee: 217.6547°
revolutions per day: 13.07337918
mean anomaly at epoch: 134.1547°
orbit number at epoch: 53612

The dashed part of the orbit path shows where the satellite is in the earth's shadow,  

DLR